Change the Weather History Date:

Sunday, February 10, 2013

  Actual Average Record
Temperature  
Mean Temperature 26 °F -  
Max Temperature 28 °F 22 °F 42 °F (1999)
Min Temperature 23 °F 0 °F -32 °F (2011)
Degree Days  
Heating Degree Days 40    
Moisture  
Dew Point 23 °F    
Average Humidity 93    
Maximum Humidity 100    
Minimum Humidity 86    
Precipitation  
Precipitation 0.23 in - - ()
Sea Level Pressure  
Sea Level Pressure 29.74 in    
Wind  
Wind Speed 2 mph (NE)    
Max Wind Speed 16 mph    
Max Gust Speed 29 mph    
Visibility 4 miles    
Events Snow    
Averages and records for this station are not official NWS values.
T = Trace of Precipitation, MM = Missing Value Source: NWS Daily Summary

Daily Weather History Graph

Daily Weather History Graph

Search for Another Location

Airport or City:

Trip Planner

Search our weather history database for the weather conditions in past years. The results will help you decide how hot, cold, wet, or windy it might be!

Date:

Astronomy

Feb. 10, 2013 Rise Set
Actual Time 7:24 AM CST 5:24 PM CST
Civil Twilight 6:52 AM CST 5:56 PM CST
Nautical Twilight 6:15 AM CST 6:33 PM CST
Astronomical Twilight 5:39 AM CST 7:09 PM CST
Moon 7:08 AM CST (2/10) 6:24 PM CST (2/10)
Length of Visible Light 11h 04m
Length of Day
9h 59m
New Moon, 0% of the Moon is Illuminated
Feb 10
New Moon
Feb 17
First Quarter
Feb 25
Full
Mar 4
Last Quarter
Mar 11
New

Hourly Weather History & Observations

Time (CST) Temp. Windchill Dew Point Humidity Pressure Visibility Wind Dir Wind Speed Gust Speed Precip Events Conditions
12:11 AM 24.8 °F - 23.0 °F 93% 29.97 in 3.0 mi Calm Calm - N/A   Overcast
12:31 AM 24.8 °F - 23.0 °F 93% 29.97 in 3.0 mi Calm Calm - N/A   Overcast
12:51 AM 24.8 °F - 23.0 °F 93% 29.95 in 3.0 mi Calm Calm - N/A   Overcast
1:11 AM 24.8 °F - 23.0 °F 93% 29.95 in 2.0 mi Calm Calm - N/A   Overcast
1:32 AM 24.8 °F - 21.2 °F 86% 29.95 in 2.5 mi Calm Calm - N/A   Overcast
1:52 AM 23.0 °F - 21.2 °F 93% 29.95 in 2.5 mi Calm Calm - N/A   Overcast
2:11 AM 23.0 °F - 21.2 °F 93% 29.95 in 2.5 mi Calm Calm - N/A   Overcast
2:31 AM 23.0 °F - 21.2 °F 93% 29.95 in 2.5 mi Calm Calm - N/A   Overcast
2:51 AM 23.0 °F - 21.2 °F 93% 29.94 in 2.5 mi Calm Calm - N/A   Overcast
3:11 AM 23.0 °F - 21.2 °F 93% 29.93 in 3.0 mi Calm Calm - N/A   Overcast
3:31 AM 23.0 °F - 21.2 °F 93% 29.93 in 2.5 mi Calm Calm - N/A   Overcast
3:52 AM 23.0 °F - 21.2 °F 93% 29.92 in 3.0 mi Calm Calm - N/A   Overcast
4:12 AM 23.0 °F - 21.2 °F 93% 29.91 in 3.0 mi Calm Calm - N/A   Overcast
4:31 AM 23.0 °F - 21.2 °F 93% 29.91 in 3.0 mi Calm Calm - N/A   Overcast
4:51 AM 23.0 °F - 21.2 °F 93% 29.91 in 3.0 mi Calm Calm - N/A   Overcast
5:11 AM 23.0 °F - 21.2 °F 93% 29.91 in 3.0 mi Calm Calm - N/A   Overcast
5:31 AM 23.0 °F - 21.2 °F 93% 29.91 in 3.0 mi Calm Calm - N/A   Overcast
5:51 AM 23.0 °F - 21.2 °F 93% 29.90 in 4.0 mi Calm Calm - N/A   Overcast
6:11 AM 23.0 °F - 21.2 °F 93% 29.89 in 4.0 mi Calm Calm - N/A   Overcast
6:32 AM 23.0 °F - 21.2 °F 93% 29.90 in 4.0 mi Calm Calm - N/A   Overcast
6:51 AM 23.0 °F - 21.2 °F 93% 29.89 in 4.0 mi Calm Calm - N/A   Overcast
7:11 AM 23.0 °F - 21.2 °F 93% 29.88 in 4.0 mi Calm Calm - N/A   Overcast
7:32 AM 23.0 °F - 21.2 °F 93% 29.88 in 4.0 mi Calm Calm - N/A   Overcast
7:51 AM 24.8 °F - 21.2 °F 86% 29.88 in 4.0 mi Calm Calm - N/A Snow Light Snow
8:11 AM 24.8 °F - 21.2 °F 86% 29.86 in 5.0 mi Calm Calm - N/A   Overcast
8:32 AM 24.8 °F - 23.0 °F 93% 29.86 in 5.0 mi Calm Calm - N/A   Overcast
8:51 AM 24.8 °F - 23.0 °F 93% 29.86 in 5.0 mi Calm Calm - N/A   Overcast
9:11 AM 24.8 °F - 24.8 °F 100% 29.85 in 5.0 mi Calm Calm - N/A   Overcast
9:32 AM 24.8 °F 19.1 °F 24.8 °F 100% 29.83 in 7.0 mi NNE 4.6 mph - N/A   Overcast
9:51 AM 26.6 °F 20.0 °F 24.8 °F 93% 29.82 in 7.0 mi NE 5.8 mph - N/A   Overcast
10:13 AM 26.6 °F 20.0 °F 24.8 °F 93% 29.81 in 7.0 mi NE 5.8 mph - N/A   Overcast
10:31 AM 24.8 °F 19.1 °F 23.0 °F 93% 29.82 in 7.0 mi East 4.6 mph - N/A   Overcast
10:51 AM 26.6 °F 21.2 °F 24.8 °F 93% 29.81 in 5.0 mi ENE 4.6 mph - N/A   Overcast
11:12 AM 26.6 °F 22.6 °F 24.8 °F 93% 29.81 in 5.0 mi ENE 3.5 mph - N/A   Overcast
11:31 AM 26.6 °F 21.2 °F 24.8 °F 93% 29.80 in 4.0 mi ENE 4.6 mph - N/A   Overcast
11:51 AM 26.6 °F 20.0 °F 24.8 °F 93% 29.78 in 5.0 mi NE 5.8 mph - N/A   Overcast
12:11 PM 26.6 °F 20.0 °F 24.8 °F 93% 29.78 in 5.0 mi ENE 5.8 mph - N/A   Overcast
12:31 PM 26.6 °F 20.0 °F 24.8 °F 93% 29.74 in 5.0 mi ENE 5.8 mph - N/A   Overcast
12:51 PM 26.6 °F 21.2 °F 24.8 °F 93% 29.72 in 5.0 mi NNE 4.6 mph - N/A   Overcast
1:11 PM 26.6 °F 20.0 °F 24.8 °F 93% 29.72 in 7.0 mi ENE 5.8 mph - N/A   Overcast
1:32 PM 26.6 °F 18.2 °F 24.8 °F 93% 29.71 in 7.0 mi ENE 8.1 mph - N/A   Overcast
1:51 PM 26.6 °F 20.0 °F 24.8 °F 93% 29.70 in 10.0 mi ENE 5.8 mph - N/A   Overcast
2:11 PM 26.6 °F 21.2 °F 24.8 °F 93% 29.68 in 10.0 mi NNE 4.6 mph - N/A   Overcast
2:32 PM 26.6 °F 19.1 °F 24.8 °F 93% 29.67 in 10.0 mi NE 6.9 mph 17.3 mph N/A   Overcast
2:51 PM 26.6 °F 19.1 °F 24.8 °F 93% 29.67 in 7.0 mi ENE 6.9 mph - N/A   Overcast
3:12 PM 26.6 °F 20.0 °F 24.8 °F 93% 29.66 in 10.0 mi NE 5.8 mph - N/A   Overcast
3:31 PM 26.6 °F 19.1 °F 24.8 °F 93% 29.65 in 7.0 mi NNE 6.9 mph - N/A   Overcast
3:52 PM 26.6 °F 16.8 °F 24.8 °F 93% 29.62 in 7.0 mi NNE 10.4 mph 17.3 mph N/A   Overcast
4:11 PM 26.6 °F 19.1 °F 24.8 °F 93% 29.59 in 7.0 mi NE 6.9 mph 18.4 mph N/A   Overcast
4:32 PM 24.8 °F 14.6 °F 23.0 °F 93% 29.58 in 0.5 mi NNE 10.4 mph 17.3 mph N/A Snow Light Snow
4:51 PM 24.8 °F 16.9 °F 24.8 °F 100% 29.58 in 0.2 mi NNE 6.9 mph - N/A Snow Snow
5:12 PM 24.8 °F 16.1 °F 24.8 °F 100% 29.57 in 0.2 mi NNE 8.1 mph - 0.01 in Snow Snow
5:31 PM 24.8 °F 19.1 °F 24.8 °F 100% 29.58 in 0.2 mi NNE 4.6 mph - 0.01 in Snow Heavy Snow
5:51 PM 24.8 °F 19.1 °F 24.8 °F 100% 29.58 in 0.2 mi NNE 4.6 mph - 0.01 in Snow Snow
6:11 PM 24.8 °F 16.1 °F 24.8 °F 100% 29.57 in 0.5 mi NNE 8.1 mph - N/A Snow Snow
6:31 PM 24.8 °F 20.5 °F 24.8 °F 100% 29.57 in 0.8 mi North 3.5 mph - N/A Snow Light Snow
6:51 PM 24.8 °F 19.1 °F 23.0 °F 93% 29.57 in 0.8 mi NNE 4.6 mph - N/A Snow Light Snow
7:11 PM 24.8 °F 16.9 °F 23.0 °F 93% 29.57 in 0.5 mi NNE 6.9 mph - N/A Snow Light Snow
7:31 PM 24.8 °F 16.1 °F 23.0 °F 93% 29.56 in 0.2 mi NNE 8.1 mph - N/A Snow Snow
7:51 PM 24.8 °F 16.1 °F 23.0 °F 93% 29.54 in 0.2 mi North 8.1 mph - N/A Snow Heavy Snow
8:12 PM 24.8 °F 14.6 °F 23.0 °F 93% 29.53 in 0.2 mi NNE 10.4 mph 17.3 mph N/A Snow Snow
8:31 PM 24.8 °F 16.9 °F 23.0 °F 93% 29.53 in 0.2 mi North 6.9 mph - N/A Snow Snow
8:51 PM 24.8 °F 17.9 °F 23.0 °F 93% 29.53 in 0.2 mi North 5.8 mph - N/A Snow Snow
9:13 PM 28.4 °F 16.6 °F 26.6 °F 93% 29.37 in 1.8 mi ENE 16.1 mph 28.8 mph N/A Snow Light Snow
9:31 PM 24.8 °F 17.9 °F 23.0 °F 93% 29.52 in 1.0 mi North 5.8 mph - 0.06 in Snow Light Snow
9:52 PM 24.8 °F 17.9 °F 23.0 °F 93% 29.51 in 1.8 mi NNE 5.8 mph - 0.09 in Snow Light Snow
10:12 PM 24.8 °F 17.9 °F 23.0 °F 93% 29.51 in 2.0 mi North 5.8 mph - 0.02 in Snow Light Snow
10:31 PM 24.8 °F 19.1 °F 23.0 °F 93% 29.51 in 2.5 mi North 4.6 mph - 0.05 in Snow Light Snow
10:51 PM 24.8 °F 17.9 °F 23.0 °F 93% 29.51 in 1.8 mi North 5.8 mph - 0.07 in Snow Light Snow
11:12 PM 24.8 °F 20.5 °F 21.2 °F 86% 29.50 in 0.5 mi North 3.5 mph - 0.02 in Snow Snow
11:33 PM 28.4 °F 18.0 °F 26.6 °F 93% 29.33 in 2.5 mi NE 12.7 mph 24.2 mph 0.01 in Snow Light Snow
11:51 PM 24.8 °F 17.9 °F 21.2 °F 86% 29.50 in 0.5 mi North 5.8 mph - 0.06 in Snow Snow